[[{"header":{"parameterUnit":"m.s-1","parameterCategory":1,"la1":30.2991,"la2":30.254,"lo1":-89.0895,"lo2":-89.0444,"dy":0.0017,"dx":0.0017,"nx":28,"ny":28,"refTime":"2024-03-20T03:00:00:Z","depth":0,"parameterNumber":2,"parameterNumberName":"U-component_of_WINDS"},"data":[0,0,0,0,0,0,0,0,0,0,0,0,0,0,0,0,0,0,0,0,0,0,0,0,0,0,0,0,0,0,0,0,0,0,0,0,0,0,0,0,0,0,0,0,0,0,0,0,0,0,0,0,0,0,0,0,0,0,-2.3709,-2.3709,0,-2.3705,-2.3704,-2.3704,-2.3633,-2.3631,-2.3629,-2.3627,-2.3622,-2.3624,-2.3625,0,0,0,0,0,0,0,0,0,0,0,0,0,-2.3656,-2.3657,-2.3709,-2.3709,-2.3709,-2.3705,-2.3704,-2.3704,-2.3633,-2.3631,-2.3629,-2.3627,-2.3622,-2.3624,-2.3625,0,0,0,0,0,0,0,0,0,0,0,0,0,-2.3668,-2.3658,-2.3709,-2.3673,-2.367,-2.3705,-2.3704,-2.3704,-2.3633,-2.3631,-2.3628,-2.3625,-2.3621,-2.3623,-2.3626,-2.3695,0,0,-2.3633,-2.3634,0,0,0,0,0,0,0,0,-2.3667,-2.367,-2.3678,-2.3675,-2.3672,-2.3666,-2.3684,-2.3701,-2.3634,-2.3647,-2.3627,-2.3624,-2.3639,-2.364,-2.3645,-2.3695,-2.3694,-2.3633,-2.3635,-2.3636,-2.3636,0,0,0,0,0,0,0,-2.3667,-2.367,-2.3707,-2.3679,-2.3675,-2.3657,-2.3655,-2.3687,-2.3659,-2.3646,-2.3641,-2.3641,-2.3637,-2.3643,-2.3644,-2.3694,-2.3633,-2.3635,-2.3637,-2.3637,-2.3801,-2.3803,0,0,0,0,0,0,-2.3671,-2.367,-2.3707,-2.3707,-2.3663,-2.366,-2.3658,-2.3671,-2.3658,-2.3653,-2.3643,-2.3638,-2.364,-2.3642,-2.3644,-2.3724,-2.3636,-2.3638,-2.3639,-2.3798,-2.3801,-2.3804,0,0,0,0,0,0,-2.367,-2.3675,-2.3708,-2.3687,-2.369,-2.3664,-2.3678,-2.3672,-2.3678,-2.3656,-2.3651,-2.3655,-2.3638,-2.3641,-2.3683,-2.3723,-2.3639,-2.3641,-2.3794,-2.3799,-2.3803,-2.3885,0,0,0,0,0,0,-2.3669,-2.3675,-2.3701,-2.3688,-2.3691,-2.3747,-2.3681,-2.3674,-2.3682,-2.3675,-2.3665,-2.3661,-2.3636,-2.368,-2.3685,-2.3724,-2.3643,-2.3791,-2.3796,-2.3802,-2.3878,-2.3891,-2.3903,0,0,0,0,0,-2.3667,-2.3724,-2.3703,-2.3708,-2.3723,-2.3749,-2.3751,-2.3721,-2.3686,-2.3712,-2.3698,-2.3661,-2.3718,-2.3685,-2.369,-2.3731,-2.3788,-2.3795,-2.3801,-2.3873,-2.3889,-2.3902,0,0,0,0,0,0,-2.3742,-2.3722,-2.3698,-2.3753,-2.3753,-2.3737,-2.3769,-2.3739,-2.375,-2.3742,-2.3705,-2.3703,-2.3751,-2.3745,-2.3709,-2.3797,-2.3746,-2.3754,-2.3799,-2.3814,-2.3826,-2.3826,-2.3645,0,0,0,0,0,-2.3765,-2.3789,-2.3769,-2.3819,-2.3821,-2.3795,-2.3806,-2.3783,-2.3782,-2.3782,-2.377,-2.3771,-2.3789,-2.3801,-2.3816,-2.3877,-2.3874,-2.3908,-2.392,-2.393,-2.3937,-2.3969,-2.3984,-2.3826,-2.3826,-2.3826,0,0,-2.3813,-2.3805,-2.3822,-2.3834,-2.3832,-2.3857,-2.3796,-2.3825,-2.3842,-2.3786,-2.3825,-2.3817,-2.3815,-2.3867,-2.389,-2.3864,-2.398,-2.3939,-2.3947,-2.3948,-2.3978,-2.3993,-2.4006,-2.3831,-2.383,-2.3829,0,0,-2.3912,-2.3909,-2.395,-2.3949,-2.3947,-2.3929,-2.3939,-2.3928,-2.3921,-2.396,-2.3918,-2.3938,-2.397,-2.397,-2.3974,-2.4075,-2.4042,-2.4081,-2.4144,-2.4175,-2.4188,-2.4198,-2.4234,-2.4247,-2.4088,-2.4088,-2.4088,0,-2.3972,-2.4007,-2.3975,-2.4006,-2.4013,-2.3963,-2.4005,-2.4006,-2.4009,-2.4014,-2.3985,-2.4024,-2.4019,-2.407,-2.4095,-2.41,-2.411,-2.4081,-2.4189,-2.4199,-2.4209,-2.4242,-2.4256,-2.4093,-2.4092,-2.4092,-2.4091,0,-2.4081,-2.4106,-2.414,-2.4144,-2.4154,-2.4191,-2.4164,-2.4178,-2.4155,-2.414,-2.4181,-2.4173,-2.4186,-2.4197,-2.4174,-2.4245,-2.4229,-2.4195,-2.4143,-2.4229,-2.426,-2.4273,-2.41,-2.4098,-2.4097,-2.4095,0,0,-2.4227,-2.4213,-2.4226,-2.4227,-2.4221,-2.424,-2.4274,-2.4287,-2.43,-2.4304,-2.4332,-2.4359,-2.4328,-2.4333,-2.431,-2.4338,-2.4417,-2.43,-2.4299,-2.4322,-2.4496,-2.4521,-2.4536,-2.4396,-2.4398,-2.44,-2.4496,0,-2.4322,-2.438,-2.4352,-2.4413,-2.4436,-2.4389,-2.4419,-2.4419,-2.4407,-2.4424,-2.441,-2.4431,-2.4388,-2.439,-2.4416,-2.4402,-2.4452,-2.4395,-2.4421,-2.4422,-2.4422,-2.4553,-2.4579,-2.467,-2.4508,-2.451,-2.4511,0,-2.4441,-2.4451,-2.4514,-2.4504,-2.4513,-2.454,-2.4549,-2.4567,-2.4566,-2.4555,-2.4561,-2.4531,-2.4564,-2.4513,-2.4558,-2.452,-2.4529,-2.4524,-2.4527,-2.4528,-2.4472,-2.4557,-2.4698,-2.4712,-2.453,-2.4528,-2.4527,0,-2.4541,-2.457,-2.4611,-2.4614,-2.4603,-2.4623,-2.462,-2.4616,-2.4625,-2.4634,-2.4639,-2.4652,-2.4658,-2.4668,-2.4643,-2.4608,-2.4691,-2.4638,-2.4683,-2.4684,-2.4702,-2.4701,-2.4847,-2.4709,-2.4709,-2.4708,-2.4708,0,-2.4651,-2.4692,-2.4656,-2.4681,-2.4726,-2.4693,-2.4738,-2.4729,-2.4726,-2.4749,-2.471,-2.4732,-2.4697,-2.4716,-2.4696,-2.4737,-2.474,-2.4732,-2.4726,-2.4735,-2.4736,-2.474,-2.4733,-2.4712,-2.4711,-2.471,-2.471,0,-2.477,-2.4747,-2.479,-2.4776,-2.4774,-2.4807,-2.4796,-2.4819,-2.4804,-2.4834,-2.4839,-2.4816,-2.4836,-2.4812,-2.483,-2.4817,-2.4871,-2.4856,-2.4872,-2.4867,-2.4913,-2.4909,-2.5066,-2.5085,-2.4936,-2.4937,-2.4938,0,-2.4841,-2.4871,-2.4861,-2.4874,-2.4873,-2.4894,-2.4903,-2.4873,-2.4884,-2.4885,-2.4909,-2.4926,-2.4938,-2.4973,-2.4957,-2.4971,-2.4956,-2.501,-2.4958,-2.4966,-2.4957,-2.4955,-2.4958,-2.5021,-2.5023,-2.5024,-2.5025,0,-2.497,-2.4957,-2.4972,-2.4984,-2.4997,-2.5005,-2.501,-2.5022,-2.499,-2.5005,-2.5026,-2.5035,-2.5054,-2.5072,-2.5082,-2.5078,-2.5047,-2.5042,-2.5053,-2.5062,-2.507,-2.5066,-2.4901,-2.5038,-2.5037,-2.5036,-2.5035,-2.5035,-2.5066,-2.5091,-2.5088,-2.5107,-2.5107,-2.5113,-2.5134,-2.5122,-2.5138,-2.5151,-2.5132,-2.5158,-2.5156,-2.5166,-2.5166,-2.5186,-2.5162,-2.5178,-2.5182,-2.5187,-2.5193,-2.5067,-2.5187,-2.5187,-2.5186,-2.5186,-2.5186,0,-2.5193,-2.5189,-2.5206,-2.5214,-2.5229,-2.5198,-2.5202,-2.5216,-2.524,-2.524,-2.5253,-2.5277,-2.5294,-2.5281,-2.5295,-2.5313,-2.5299,-2.5318,-2.5316,-2.5315,-2.5214,-2.5203,-2.5329,-2.5329,-2.5329,-2.5329,-2.5329,-2.5329,-2.526,-2.53,-2.5288,-2.5328,-2.5323,-2.5348,-2.5353,-2.5358,-2.5358,-2.5387,-2.5401,-2.5392,-2.5387,-2.54,-2.5415,-2.541,-2.5417,-2.5441,-2.5432,-2.5337,-2.5323,-2.5309,-2.5299,-2.5443,-2.5443,-2.5532,-2.5533,-2.5533]},{"header":{"parameterUnit":"m.s-1","parameterCategory":1,"la1":30.2991,"la2":30.254,"lo1":-89.0895,"lo2":-89.0444,"dy":0.0017,"dx":0.0017,"nx":28,"ny":28,"refTime":"2024-03-20T03:00:00:Z","depth":0,"parameterNumber":3,"parameterNumberName":"V-component_of_WINDS"},"data":[0,0,0,0,0,0,0,0,0,0,0,0,0,0,0,0,0,0,0,0,0,0,0,0,0,0,0,0,0,0,0,0,0,0,0,0,0,0,0,0,0,0,0,0,0,0,0,0,0,0,0,0,0,0,0,0,0,0,2.2845,2.2847,0,2.2947,2.2948,2.2949,2.305,2.3052,2.3053,2.3055,2.3153,2.3154,2.3155,0,0,0,0,0,0,0,0,0,0,0,0,0,2.2736,2.2738,2.2845,2.2847,2.2848,2.2946,2.2948,2.2949,2.305,2.3052,2.3054,2.3055,2.3152,2.3154,2.3155,0,0,0,0,0,0,0,0,0,0,0,0,0,2.2805,2.2738,2.2845,2.291,2.2917,2.2946,2.2948,2.2949,2.305,2.3052,2.3054,2.3056,2.3152,2.3153,2.3155,2.3126,0,0,2.3162,2.3162,0,0,0,0,0,0,0,0,2.2801,2.2809,2.29,2.2906,2.2914,2.2988,2.2945,2.3009,2.3049,2.2999,2.3055,2.3057,2.3096,2.3102,2.3117,2.3131,2.3135,2.3162,2.3163,2.3164,2.3164,0,0,0,0,0,0,0,2.2796,2.2805,2.2885,2.2901,2.2909,2.2933,2.2945,2.2958,2.3034,2.3004,2.3012,2.3022,2.31,2.3115,2.312,2.3137,2.3162,2.3163,2.3165,2.3165,2.3133,2.3132,0,0,0,0,0,0,2.2782,2.28,2.2882,2.2888,2.2861,2.2934,2.2947,2.2962,2.3035,2.3048,2.302,2.3027,2.311,2.3117,2.3124,2.3095,2.3164,2.3166,2.3167,2.3135,2.3133,2.3131,0,0,0,0,0,0,2.2779,2.2788,2.2878,2.2847,2.286,2.2933,2.2949,2.2963,2.2978,2.3047,2.3061,2.3022,2.3112,2.3121,2.3126,2.31,2.3166,2.3168,2.3138,2.3135,2.3132,2.3037,0,0,0,0,0,0,2.2776,2.2787,2.2777,2.2846,2.2861,2.2879,2.2948,2.2963,2.2982,2.2991,2.3052,2.3064,2.3114,2.3122,2.3128,2.3104,2.317,2.314,2.3136,2.3133,2.3043,2.3032,2.3022,0,0,0,0,0,2.2771,2.2745,2.2776,2.2785,2.2851,2.2877,2.2886,2.2946,2.2979,2.297,2.3015,2.3062,2.3102,2.3122,2.3129,2.3105,2.3142,2.3138,2.3133,2.3048,2.3034,2.3022,0,0,0,0,0,0,2.2669,2.2755,2.279,2.2786,2.2824,2.2895,2.2884,2.2929,2.2957,2.2964,2.3036,2.3049,2.3045,2.3076,2.3096,2.3082,2.3129,2.3125,2.3062,2.3049,2.3038,2.3031,2.3172,0,0,0,0,0,2.2646,2.2662,2.2736,2.2724,2.2742,2.281,2.2823,2.2867,2.2908,2.2924,2.297,2.3007,2.3028,2.304,2.3063,2.3048,2.3063,2.3036,2.3025,2.3016,2.3012,2.3007,2.2996,2.3116,2.3116,2.3116,0,0,2.2598,2.2648,2.2653,2.2705,2.274,2.2754,2.2822,2.2834,2.2844,2.2925,2.2934,2.2968,2.3014,2.3009,2.3009,2.3035,2.2982,2.301,2.3002,2.3003,2.3001,2.299,2.2979,2.3113,2.3113,2.3114,0,0,2.2519,2.2558,2.2553,2.2587,2.264,2.2685,2.2684,2.2749,2.2776,2.2785,2.2847,2.286,2.2895,2.2926,2.2946,2.288,2.2925,2.2886,2.2829,2.2823,2.2814,2.2806,2.2783,2.2773,2.2881,2.2881,2.2881,0,2.2453,2.2478,2.2545,2.2553,2.2574,2.2651,2.2647,2.2676,2.2732,2.2744,2.2772,2.2819,2.2855,2.2859,2.2844,2.2857,2.2858,2.2878,2.281,2.2803,2.2796,2.2775,2.2766,2.2876,2.2877,2.2877,2.2878,0,2.2394,2.241,2.24,2.2455,2.2475,2.2476,2.2543,2.2555,2.2597,2.2639,2.2648,2.2695,2.273,2.2734,2.2774,2.2744,2.2758,2.2797,2.2846,2.2778,2.276,2.2752,2.2869,2.2871,2.2872,2.2873,0,0,2.2251,2.2345,2.234,2.2367,2.2431,2.2444,2.2449,2.2486,2.2495,2.2531,2.2537,2.2566,2.2603,2.2626,2.267,2.2665,2.2611,2.2705,2.2708,2.2686,2.2581,2.2551,2.2541,2.2642,2.264,2.2639,2.2577,0,2.2182,2.2198,2.226,2.2257,2.2273,2.2347,2.2351,2.239,2.243,2.2449,2.2493,2.2512,2.2559,2.2574,2.2573,2.2618,2.2591,2.2623,2.2647,2.2647,2.2633,2.2531,2.2499,2.2438,2.257,2.2569,2.2568,0,2.2104,2.2138,2.2137,2.2203,2.2212,2.2215,2.2254,2.2271,2.2317,2.2347,2.2373,2.2424,2.2433,2.2479,2.2492,2.2513,2.2526,2.255,2.2549,2.2553,2.2603,2.2532,2.242,2.2411,2.2557,2.2558,2.2559,0,2.2,2.2046,2.2052,2.2072,2.2149,2.215,2.2181,2.223,2.2248,2.2281,2.2294,2.2327,2.2345,2.2369,2.2427,2.2455,2.2433,2.2484,2.2457,2.2456,2.2449,2.2448,2.2337,2.2457,2.2457,2.2458,2.2458,0,2.1917,2.1914,2.2007,2.201,2.2009,2.2079,2.2075,2.2114,2.2157,2.2168,2.2234,2.2243,2.2319,2.2336,2.2381,2.2386,2.2393,2.2416,2.2428,2.241,2.2407,2.242,2.2425,2.2455,2.2456,2.2456,2.2457,0,2.1801,2.1863,2.1875,2.1947,2.1965,2.1961,2.2022,2.2028,2.2073,2.2087,2.2094,2.2163,2.2188,2.2248,2.2288,2.2318,2.231,2.2332,2.2295,2.2302,2.2272,2.2274,2.2165,2.2155,2.2281,2.2279,2.2278,0,2.1744,2.1743,2.1816,2.183,2.186,2.188,2.19,2.197,2.1987,2.2041,2.204,2.207,2.2098,2.2133,2.2186,2.2217,2.224,2.22,2.2245,2.2227,2.224,2.2239,2.2239,2.2189,2.2188,2.2186,2.2185,0,2.1636,2.1667,2.1694,2.1732,2.1754,2.1787,2.1823,2.183,2.1908,2.1924,2.1952,2.1973,2.2015,2.2044,2.2083,2.2114,2.2162,2.2171,2.2166,2.2148,2.2126,2.2138,2.2268,2.2173,2.2174,2.2175,2.2176,2.2176,2.1547,2.1551,2.1604,2.1632,2.1667,2.17,2.1709,2.1756,2.1781,2.1821,2.1861,2.1883,2.1931,2.1989,2.2017,2.2035,2.206,2.2053,2.2052,2.2049,2.2041,2.2124,2.2043,2.2043,2.2044,2.2044,2.2044,0,2.1443,2.1481,2.1507,2.1557,2.1579,2.1624,2.1667,2.1682,2.1702,2.1743,2.177,2.1801,2.183,2.1886,2.1919,2.1923,2.1946,2.1929,2.193,2.1936,2.2017,2.2018,2.1911,2.1911,2.1911,2.1911,2.1911,2.1911,2.1392,2.1401,2.1438,2.1465,2.1503,2.1528,2.1548,2.1579,2.1612,2.1645,2.167,2.1707,2.1754,2.1792,2.182,2.1836,2.1845,2.1821,2.1844,2.1918,2.193,2.1942,2.1944,2.1823,2.1822,2.1762,2.1761,2.1761]}]]